When you browse on this site, cookies collect data to enhance your experience and personalize the content and advertising you see.
Visit our Privacy Policy to learn more. By continuing to use the site, you agree to this use of cookies and data.
  • In Portugal
  • List of Countries
  • For 7 days
  • Water Temperature
  • Weather Map
  • Weather Widgets
  • user-avatar
    Login

    Hourly Weather Ulanova

    Today, 7 April, Tuesday

    Time Temperature Precipitation Wind Pressure Humidity
    00:00 +1°C° 0 mm 2 mps 756 mmHg 87%
    01:00 +2°C° 0 mm 1 mps 757 mmHg 87%
    02:00 +1°C° 0 mm 1 mps 757 mmHg 88%
    03:00 +1°C° 0 mm 1 mps 757 mmHg 87%
    04:00 0°C° 0 mm 1 mps 757 mmHg 85%
    05:00 0°C° 0 mm 1 mps 758 mmHg 84%
    06:00 +2°C° 0 mm 1 mps 758 mmHg 77%
    07:00 +3°C° 0 mm 1 mps 758 mmHg 70%
    08:00 +5°C° 0 mm 1 mps 759 mmHg 62%
    09:00 +6°C° 0 mm 1 mps 758 mmHg 59%
    10:00 +6°C° 0 mm 2 mps 758 mmHg 55%
    11:00 +7°C° 0 mm 2 mps 758 mmHg 52%
    12:00 +8°C° 0 mm 2 mps 757 mmHg 52%
    13:00 +9°C° 0 mm 2 mps 757 mmHg 52%
    14:00 +10°C° 0 mm 2 mps 757 mmHg 52%
    15:00 +10°C° 0 mm 3 mps 756 mmHg 55%
    16:00 +10°C° 0 mm 3 mps 755 mmHg 59%
    17:00 +10°C° 0 mm 3 mps 755 mmHg 62%
    18:00 +9°C° 0 mm 3 mps 754 mmHg 67%
    19:00 +8°C° 0 mm 3 mps 754 mmHg 72%
    20:00 +6°C° 0 mm 4 mps 754 mmHg 77%
    21:00 +5°C° 0 mm 4 mps 753 mmHg 76%
    22:00 +5°C° 0 mm 4 mps 753 mmHg 75%
    23:00 +5°C° 0 mm 4 mps 752 mmHg 74%

    Tomorrow, 8 April, Wednesday

    Time Temperature Precipitation Wind Pressure Humidity
    00:00 +5°C° 0 mm 5 mps 752 mmHg 73%
    01:00 +5°C° 0 mm 5 mps 751 mmHg 72%
    02:00 +5°C° 0 mm 5 mps 750 mmHg 70%
    03:00 +4°C° 0 mm 6 mps 749 mmHg 69%
    04:00 +3°C° 0 mm 6 mps 748 mmHg 68%
    05:00 +3°C° 0 mm 6 mps 748 mmHg 66%
    06:00 +4°C° 0 mm 6 mps 747 mmHg 65%
    07:00 +5°C° 0 mm 6 mps 746 mmHg 64%
    08:00 +6°C° 0 mm 7 mps 746 mmHg 63%
    09:00 +6°C° 0.1 mm 7 mps 746 mmHg 64%
    10:00 +8°C° 0.1 mm 7 mps 746 mmHg 65%
    11:00 +8°C° 0.1 mm 7 mps 746 mmHg 66%
    12:00 +8°C° 0.1 mm 6 mps 746 mmHg 66%
    13:00 +8°C° 0.1 mm 6 mps 746 mmHg 66%
    14:00 +8°C° 0.1 mm 6 mps 746 mmHg 66%
    15:00 +8°C° 0 mm 6 mps 746 mmHg 69%
    16:00 +8°C° 0 mm 6 mps 747 mmHg 72%
    17:00 +8°C° 0 mm 5 mps 747 mmHg 75%
    18:00 +7°C° 0 mm 5 mps 747 mmHg 79%
    19:00 +6°C° 0 mm 4 mps 747 mmHg 83%
    20:00 +5°C° 0 mm 3 mps 747 mmHg 88%
    21:00 +4°C° 0 mm 3 mps 747 mmHg 88%
    22:00 +5°C° 0 mm 2 mps 748 mmHg 89%
    23:00 +4°C° 0 mm 2 mps 748 mmHg 90%

    Day after tomorrow, 9 April, Thursday

    Time Temperature Precipitation Wind Pressure Humidity
    00:00 +4°C° 0 mm 2 mps 748 mmHg 90%
    01:00 +4°C° 0 mm 1 mps 747 mmHg 91%
    02:00 +4°C° 0 mm 1 mps 747 mmHg 91%
    03:00 +3°C° 0 mm 1 mps 747 mmHg 91%
    04:00 +3°C° 0 mm 1 mps 747 mmHg 91%
    05:00 +1°C° 0 mm 0 mps 747 mmHg 90%
    06:00 +4°C° 0 mm 1 mps 747 mmHg 84%
    07:00 +6°C° 0 mm 1 mps 747 mmHg 78%
    08:00 +6°C° 0 mm 2 mps 747 mmHg 72%
    09:00 +8°C° 0 mm 2 mps 746 mmHg 67%
    10:00 +9°C° 0 mm 3 mps 746 mmHg 62%
    11:00 +11°C° 0 mm 3 mps 746 mmHg 57%
    12:00 +12°C° 0 mm 4 mps 745 mmHg 54%
    13:00 +12°C° 0 mm 4 mps 744 mmHg 52%
    14:00 +13°C° 0 mm 4 mps 744 mmHg 49%
    15:00 +13°C° 0 mm 4 mps 743 mmHg 52%
    16:00 +12°C° 0 mm 3 mps 743 mmHg 55%
    17:00 +12°C° 0 mm 3 mps 742 mmHg 58%
    18:00 +10°C° 0 mm 3 mps 742 mmHg 62%
    19:00 +9°C° 0 mm 3 mps 741 mmHg 67%
    20:00 +8°C° 0 mm 3 mps 741 mmHg 72%
    21:00 +8°C° 0 mm 3 mps 741 mmHg 72%
    22:00 +8°C° 0 mm 3 mps 740 mmHg 72%
    23:00 +7°C° 0 mm 4 mps 740 mmHg 73%

    10 April, Friday

    Time Temperature Precipitation Wind Pressure Humidity
    00:00 +8°C° 0.1 mm 3 mps 740 mmHg 74%
    01:00 +8°C° 0.1 mm 3 mps 739 mmHg 76%
    02:00 +8°C° 0.1 mm 3 mps 739 mmHg 77%
    03:00 +7°C° 0.9 mm 3 mps 738 mmHg 83%
    04:00 +7°C° 0.9 mm 3 mps 738 mmHg 88%
    05:00 +7°C° 0.9 mm 2 mps 738 mmHg 94%
    06:00 +7°C° 0.7 mm 2 mps 738 mmHg 92%
    07:00 +7°C° 0.7 mm 2 mps 738 mmHg 89%
    08:00 +8°C° 0.7 mm 2 mps 738 mmHg 87%
    09:00 +8°C° 0.2 mm 3 mps 738 mmHg 85%
    10:00 +8°C° 0.2 mm 3 mps 738 mmHg 82%
    11:00 +7°C° 0.2 mm 4 mps 738 mmHg 79%
    12:00 +7°C° 0.1 mm 4 mps 739 mmHg 75%
    13:00 +7°C° 0.1 mm 5 mps 739 mmHg 71%
    14:00 +7°C° 0.1 mm 5 mps 739 mmHg 66%
    15:00 +7°C° 0 mm 5 mps 739 mmHg 63%
    16:00 +7°C° 0 mm 5 mps 739 mmHg 60%
    17:00 +6°C° 0 mm 5 mps 739 mmHg 56%
    18:00 +5°C° 0 mm 4 mps 740 mmHg 61%
    19:00 +4°C° 0 mm 4 mps 740 mmHg 65%
    20:00 +3°C° 0 mm 4 mps 741 mmHg 69%
    21:00 +3°C° 0 mm 4 mps 741 mmHg 71%
    22:00 +1°C° 0 mm 4 mps 741 mmHg 72%
    23:00 +1°C° 0 mm 4 mps 741 mmHg 74%

    11 April, Saturday

    Time Temperature Precipitation Wind Pressure Humidity
    00:00 0°C° 0 mm 4 mps 742 mmHg 76%
    01:00 0°C° 0 mm 4 mps 742 mmHg 78%
    02:00 -1°C° 0 mm 4 mps 742 mmHg 80%
    03:00 -1°C° 0 mm 4 mps 742 mmHg 81%
    04:00 -1°C° 0 mm 4 mps 743 mmHg 81%
    05:00 -2°C° 0 mm 4 mps 743 mmHg 82%
    06:00 -1°C° 0 mm 4 mps 743 mmHg 71%
    07:00 0°C° 0 mm 5 mps 743 mmHg 60%
    08:00 +1°C° 0 mm 5 mps 744 mmHg 49%
    09:00 +2°C° 0 mm 5 mps 744 mmHg 46%
    10:00 +3°C° 0 mm 5 mps 744 mmHg 44%
    11:00 +5°C° 0 mm 5 mps 744 mmHg 41%
    12:00 +6°C° 0 mm 5 mps 744 mmHg 43%
    13:00 +6°C° 0 mm 4 mps 745 mmHg 46%
    14:00 +6°C° 0 mm 4 mps 745 mmHg 48%
    15:00 +5°C° 0.1 mm 4 mps 745 mmHg 51%
    16:00 +5°C° 0.1 mm 4 mps 745 mmHg 53%
    17:00 +5°C° 0.1 mm 3 mps 745 mmHg 56%
    18:00 +4°C° 0 mm 3 mps 745 mmHg 60%
    19:00 +3°C° 0 mm 3 mps 746 mmHg 65%
    20:00 +2°C° 0 mm 2 mps 746 mmHg 70%
    21:00 +2°C° 0 mm 2 mps 747 mmHg 72%
    22:00 +1°C° 0 mm 2 mps 747 mmHg 74%
    23:00 -1°C° 0 mm 2 mps 748 mmHg 75%

    12 April, Sunday

    Time Temperature Precipitation Wind Pressure Humidity
    00:00 -1°C° 0 mm 2 mps 748 mmHg 77%
    01:00 -1°C° 0 mm 2 mps 748 mmHg 79%
    02:00 -2°C° 0 mm 2 mps 748 mmHg 81%
    03:00 -2°C° 0 mm 2 mps 749 mmHg 81%
    04:00 -2°C° 0 mm 2 mps 749 mmHg 80%
    05:00 -2°C° 0 mm 2 mps 749 mmHg 80%
    06:00 -1°C° 0 mm 2 mps 749 mmHg 71%
    07:00 +2°C° 0 mm 1 mps 749 mmHg 62%
    08:00 +4°C° 0 mm 1 mps 749 mmHg 53%
    09:00 +5°C° 0 mm 1 mps 749 mmHg 48%
    10:00 +5°C° 0 mm 0 mps 749 mmHg 43%
    11:00 +6°C° 0 mm 0 mps 749 mmHg 38%
    12:00 +8°C° 0 mm 1 mps 748 mmHg 37%
    13:00 +8°C° 0 mm 1 mps 748 mmHg 37%
    14:00 +7°C° 0 mm 2 mps 748 mmHg 36%
    15:00 +7°C° 0 mm 2 mps 747 mmHg 39%
    16:00 +7°C° 0 mm 3 mps 747 mmHg 42%
    17:00 +7°C° 0 mm 3 mps 746 mmHg 45%
    18:00 +5°C° 0 mm 3 mps 746 mmHg 50%
    19:00 +4°C° 0 mm 3 mps 745 mmHg 56%
    20:00 +4°C° 0 mm 2 mps 745 mmHg 62%
    21:00 +2°C° 0 mm 3 mps 745 mmHg 62%
    22:00 +2°C° 0 mm 3 mps 744 mmHg 63%
    23:00 +2°C° 0 mm 3 mps 744 mmHg 63%
    Show more